GW5216 Weather Reports


time (UTC)temp
C
wind
direction
speed
KPH
gust
KPH
rain 1hr
cm
rain 24hr
cm
rain mn
cm
humidity
%
barometer
mb
20260906231646 16 247 0.0 0.0 0.00 0.00 0.00 83 1016.3
20260906231142 16 292 0.0 0.0 0.00 0.00 0.00 84 1016.4
20260906230641 16 292 0.0 0.0 0.00 0.00 0.00 83 1016.2
20260906230136 16 292 0.0 0.0 0.00 0.00 0.00 83 1016.3
20260906225636 16 292 0.0 0.0 0.00 0.00 0.00 81 1016.3
20260906225132 16 292 0.0 0.0 0.00 0.00 0.00 80 1016.3
20260906224632 16 292 0.0 0.0 0.00 0.00 0.00 80 1016.2
20260906224129 16 337 0.0 0.0 0.00 0.00 0.00 81 1016.1
20260906223625 16 337 0.0 0.0 0.00 0.00 0.00 82 1016.2
20260906223124 16 337 0.0 0.0 0.00 0.00 0.00 83 1016.0
20260906222623 16 337 0.0 0.0 0.00 0.00 0.00 83 1016.1
20260906222121 16 337 0.0 0.0 0.00 0.00 0.00 82 1016.1
20260906221620 16 337 0.0 0.0 0.00 0.00 0.00 80 1016.2
20260906221115 16 337 0.0 0.0 0.00 0.00 0.00 81 1016.3
20260906220610 16 336 0.0 0.0 0.00 0.00 0.00 81 1016.2
20260906220106 16 202 0.0 0.0 0.00 0.00 0.00 81 1016.2
20260906215604 16 202 0.0 0.0 0.00 0.00 0.00 81 1016.2
20260906215103 16 202 0.0 0.0 0.00 0.00 0.00 82 1016.2
20260906214602 16 202 0.0 0.0 0.00 0.00 0.00 84 1016.3
20260906214057 16 202 0.0 0.0 0.00 0.00 0.00 83 1016.2
20260906213556 16 202 0.0 0.0 0.00 0.00 0.00 83 1016.4
20260906213051 16 247 0.0 0.0 0.00 0.00 0.00 83 1016.4
20260906212543 16 247 0.0 0.0 0.00 0.00 0.00 83 1016.2
20260906212039 16 247 0.0 0.0 0.00 0.00 0.00 82 1016.2
20260906211538 16 247 0.0 0.0 0.00 0.00 0.00 81 1016.3
20260906211034 16 270 0.0 0.0 0.00 0.00 0.00 82 1016.3
20260906210529 16 270 0.0 0.0 0.00 0.00 0.00 83 1016.2
20260906210029 16 270 0.0 0.0 0.00 0.00 0.00 82 1016.2
20260906205525 16 270 0.0 0.0 0.00 0.00 0.00 83 1016.2
20260906205021 16 270 0.0 0.0 0.00 0.00 0.00 83 1016.3
20260906204515 16 270 0.0 0.0 0.00 0.00 0.00 82 1016.3
20260906204015 16 270 0.0 0.0 0.00 0.00 0.00 82 1016.4
20260906203509 16 270 0.0 0.0 0.00 0.00 0.00 84 1016.5
20260906203010 16 270 0.0 0.0 0.00 0.00 0.00 85 1016.4
20260906202506 16 270 0.0 0.0 0.00 0.00 0.00 86 1016.3
20260906202002 16 270 0.0 0.0 0.00 0.00 0.00 86 1016.4
20260906201456 16 270 0.0 0.0 0.00 0.00 0.00 84 1016.4
20260906200955 16 270 0.0 0.0 0.00 0.00 0.00 85 1016.3
20260906200452 15 289 0.0 0.0 0.00 0.00 0.00 85 1016.4
20260906195952 15 315 0.0 0.0 0.00 0.00 0.00 84 1016.3
20260906195448 15 315 0.0 0.0 0.00 0.00 0.00 85 1016.3
20260906194944 15 315 0.0 0.0 0.00 0.00 0.00 84 1016.4
20260906194439 15 315 0.0 0.0 0.00 0.00 0.00 82 1016.4
20260906193935 15 315 0.0 0.0 0.00 0.00 0.00 84 1016.3
20260906193430 15 315 0.0 0.0 0.00 0.00 0.00 85 1016.4
20260906192926 15 315 0.0 0.0 0.00 0.00 0.00 85 1016.4
20260906192425 15 315 0.0 0.0 0.00 0.00 0.00 84 1016.4
20260906191925 15 315 0.0 0.0 0.00 0.00 0.00 85 1016.4
20260906191420 15 238 0.0 0.0 0.00 0.00 0.00 87 1016.4
20260906190919 15 227 0.0 0.0 0.00 0.00 0.00 88 1016.4
20260906190418 15 292 0.0 0.0 0.00 0.00 0.00 90 1016.3
20260906185913 15 292 0.0 0.0 0.00 0.00 0.00 91 1016.4
20260906185412 15 292 0.0 0.0 0.00 0.00 0.00 92 1016.4
20260906184911 14 292 0.0 0.0 0.00 0.00 0.00 94 1016.4
20260906184407 14 281 0.0 0.0 0.00 0.00 0.00 97 1016.4
20260906183902 14 112 0.0 0.0 0.00 0.00 0.00 97 1016.3
20260906183358 14 112 0.0 0.0 0.00 0.00 0.00 95 1016.4
20260906182859 14 112 0.0 0.0 0.00 0.00 0.00 91 1016.4
20260906182354 14 112 0.0 0.0 0.00 0.00 0.00 90 1016.3
20260906181849 14 112 0.0 0.0 0.00 0.00 0.00 92 1016.3
20260906181345 13 112 0.0 0.0 0.00 0.00 0.00 92 1016.4
20260906180841 13 112 0.0 0.0 0.00 0.00 0.00 91 1016.4
20260906180335 13 112 0.0 0.0 0.00 0.00 0.00 92 1016.5
20260906175833 13 90 0.0 0.0 0.00 0.00 0.00 93 1016.4
20260906175328 13 90 0.0 0.0 0.00 0.00 0.00 93 1016.4
20260906174828 13 90 0.0 0.0 0.00 0.00 0.00 94 1016.3
20260906174327 12 90 0.0 0.0 0.00 0.00 0.00 95 1016.3
20260906173822 12 90 0.0 0.0 0.00 0.00 0.00 95 1016.4
20260906173318 12 90 0.0 0.0 0.00 0.00 0.00 94 1016.4
20260906172817 12 90 0.0 0.0 0.00 0.00 0.00 96 1016.5
20260906172314 12 90 0.0 0.0 0.00 0.00 0.00 97 1016.4
20260906171813 12 360 0.0 0.0 0.00 0.00 0.00 98 1016.4
20260906171309 11 360 0.0 0.0 0.00 0.00 0.00 99 1016.4
20260906170805 11 360 0.0 0.0 0.00 0.00 0.00 98 1016.4
20260906170301 11 360 0.0 0.0 0.00 0.00 0.00 99 1016.4
20260906165756 11 360 0.0 0.0 0.00 0.00 0.00 98 1016.4
20260906165255 11 360 0.0 0.0 0.00 0.00 0.00 98 1016.4
20260906164755 11 360 0.0 0.0 0.00 0.00 0.00 97 1016.3
20260906164249 11 360 0.0 0.0 0.00 0.00 0.00 99 1016.4
20260906163746 11 360 0.0 0.0 0.00 0.00 0.00 98 1016.5
20260906163242 11 360 0.0 0.0 0.00 0.00 0.00 98 1016.5
20260906162739 10 360 0.0 0.0 0.00 0.00 0.00 98 1016.5
20260906162233 10 360 0.0 0.0 0.00 0.00 0.00 99 1016.5
20260906161733 10 360 0.0 0.0 0.00 0.00 0.00 99 1016.4
20260906161232 10 360 0.0 0.0 0.00 0.00 0.00 99 1016.4
20260906160732 10 360 0.0 0.0 0.00 0.00 0.00 99 1016.4
20260906160231 10 360 0.0 0.0 0.00 0.00 0.00 99 1016.5
20260906155729 10 360 0.0 0.0 0.00 0.00 0.00 99 1016.5
20260906155224 10 360 0.0 0.0 0.00 0.00 0.00 98 1016.6
20260906154719 10 360 0.0 0.0 0.00 0.00 0.00 99 1016.5
20260906154214 9 360 0.0 0.0 0.00 0.00 0.00 99 1016.5
20260906153712 9 360 0.0 0.0 0.00 0.00 0.00 99 1016.5
20260906153207 9 360 0.0 0.0 0.00 0.00 0.00 98 1016.5
20260906152703 9 360 0.0 0.0 0.00 0.00 0.00 99 1016.5
20260906152156 9 360 0.0 0.0 0.00 0.00 0.00 99 1016.5
20260906151651 9 360 0.0 0.0 0.00 0.00 0.00 98 1016.5
20260906151147 8 360 0.0 0.0 0.00 0.00 0.00 98 1016.4
20260906150642 8 360 0.0 0.0 0.00 0.00 0.00 99 1016.4
20260906150137 8 360 0.0 0.0 0.00 0.00 0.00 98 1016.5
20260906145636 9 360 0.0 0.0 0.00 0.00 0.00 98 1016.4
20260906145131 9 360 0.0 0.0 0.00 0.00 0.00 99 1016.4
20260906144631 9 360 0.0 0.0 0.00 0.00 0.00 99 1016.5
20260906144126 10 360 0.0 0.0 0.00 0.00 0.00 99 1016.5
20260906143626 10 360 0.0 0.0 0.00 0.00 0.00 99 1016.5
20260906143124 10 45 0.0 0.0 0.00 0.00 0.00 99 1016.5
20260906142622 10 45 0.0 0.0 0.00 0.00 0.00 99 1016.4
20260906142117 9 45 0.0 0.0 0.00 0.00 0.00 99 1016.4
20260906141616 9 45 0.0 0.0 0.00 0.00 0.00 98 1016.4
20260906141112 9 45 0.0 0.0 0.00 0.00 0.00 99 1016.3
20260906140611 9 45 0.0 0.0 0.00 0.00 0.00 99 1016.3
20260906140106 9 45 0.0 0.0 0.00 0.00 0.00 98 1016.3
20260906135603 9 45 0.0 0.0 0.00 0.00 0.00 99 1016.2
20260906135059 9 45 0.0 0.0 0.00 0.00 0.00 98 1016.2
20260906134554 9 45 0.0 0.0 0.00 0.00 0.00 99 1016.1
20260906134049 8 67 0.0 0.0 0.00 0.00 0.00 98 1016.3
20260906133544 8 67 0.0 0.0 0.00 0.00 0.00 98 1016.0
20260906133040 8 67 0.0 0.0 0.00 0.00 0.00 99 1016.0
20260906132535 8 67 0.0 0.0 0.00 0.00 0.00 97 1015.9
20260906132030 8 67 0.0 0.0 0.00 0.00 0.00 98 1015.9
20260906131531 8 67 0.0 0.0 0.00 0.00 0.00 97 1015.9
20260906131026 9 67 0.0 0.0 0.00 0.00 0.00 97 1015.9
20260906130525 9 67 0.0 0.0 0.00 0.00 0.00 97 1015.9
20260906130021 9 67 0.0 0.0 0.00 0.00 0.00 99 1015.8
20260906125518 10 67 0.0 0.0 0.00 0.00 0.00 99 1015.7
20260906125013 10 67 0.0 0.0 0.00 0.00 0.00 98 1015.8
20260906124508 10 67 0.0 0.0 0.00 0.00 0.00 98 1015.7
20260906124004 10 67 0.0 0.0 0.00 0.00 0.00 97 1015.8
20260906123502 10 67 0.0 0.0 0.00 0.00 0.00 97 1015.9
20260906123002 11 67 0.0 0.0 0.00 0.00 0.00 98 1015.8
20260906122457 11 67 0.0 0.0 0.00 0.00 0.00 97 1015.8
20260906121953 11 67 0.0 0.0 0.00 0.00 0.00 96 1015.8
20260906121449 11 67 0.0 0.0 0.00 0.00 0.00 96 1015.7
20260906120946 11 67 0.0 0.0 0.00 0.00 0.00 97 1015.8
20260906120441 11 67 0.0 0.0 0.00 0.00 0.00 97 1015.9
20260906115937 10 22 0.0 0.0 0.00 0.00 0.00 97 1015.8
20260906115432 11 360 0.0 0.0 0.00 0.00 0.00 98 1015.9
20260906114933 10 360 0.0 0.0 0.00 0.00 0.00 98 1015.9
20260906114432 10 360 0.0 0.0 0.00 0.00 0.00 98 1015.9
20260906113929 10 45 0.0 0.0 0.00 0.00 0.00 99 1015.9
20260906113427 10 45 0.0 0.0 0.00 0.00 0.00 98 1015.9
20260906112923 10 45 0.0 0.0 0.00 0.00 0.00 99 1016.0
20260906112418 10 315 0.0 0.0 0.00 0.00 0.00 99 1016.0
20260906111914 10 315 0.0 0.0 0.00 0.00 0.00 99 1016.0
20260906111413 10 315 0.0 0.0 0.00 0.00 0.00 99 1015.9
20260906110908 10 315 0.0 0.0 0.00 0.00 0.00 98 1016.0
20260906110403 10 315 0.0 0.0 0.00 0.00 0.00 99 1016.0
20260906105903 10 315 0.0 0.0 0.00 0.00 0.00 98 1016.1
20260906105358 10 315 0.0 0.0 0.00 0.00 0.00 98 1016.0
20260906104854 10 315 0.0 0.0 0.00 0.00 0.00 97 1015.9
20260906104353 10 315 0.0 0.0 0.00 0.00 0.00 97 1016.1
20260906103851 10 315 0.0 0.0 0.00 0.00 0.00 97 1016.1
20260906103350 10 315 0.0 0.0 0.00 0.00 0.00 98 1016.1
20260906102846 10 315 0.0 0.0 0.00 0.00 0.00 98 1016.1
20260906102344 11 315 0.0 0.0 0.00 0.00 0.00 99 1016.1
20260906101840 11 315 0.0 0.0 0.00 0.00 0.00 98 1016.1
20260906101335 10 315 0.0 0.0 0.00 0.00 0.00 98 1016.2
20260906100831 11 247 0.0 0.0 0.00 0.00 0.00 96 1016.1
20260906100329 11 247 0.0 0.0 0.00 0.00 0.00 98 1016.1
20260906095825 11 247 0.0 0.0 0.00 0.00 0.00 97 1016.1
20260906095321 11 247 0.0 0.0 0.00 0.00 0.00 98 1016.1
20260906094820 11 247 0.0 0.0 0.00 0.00 0.00 97 1016.1
20260906094315 11 247 0.0 0.0 0.00 0.00 0.00 97 1016.2
20260906093811 11 247 0.0 0.0 0.00 0.00 0.00 98 1016.2
20260906093307 11 247 0.0 0.0 0.00 0.00 0.00 97 1016.1
20260906092802 11 247 0.0 0.0 0.00 0.00 0.00 97 1016.1
20260906092305 11 247 0.0 0.0 0.00 0.00 0.00 98 1016.2
20260906091757 11 247 0.0 0.0 0.00 0.00 0.00 97 1016.1
20260906091253 11 247 0.0 0.0 0.00 0.00 0.00 97 1016.2
20260906090750 11 247 0.0 0.0 0.00 0.00 0.00 97 1016.2
20260906090249 11 247 0.0 0.0 0.00 0.00 0.00 95 1016.3
20260906085748 11 247 0.0 0.0 0.00 0.00 0.00 96 1016.4
20260906085247 11 247 0.0 0.0 0.00 0.00 0.00 97 1016.3
20260906084743 12 360 0.0 0.0 0.00 0.00 0.00 97 1016.3
20260906084242 12 360 0.0 0.0 0.00 0.00 0.00 97 1016.3
20260906083737 11 360 0.0 0.0 0.00 0.00 0.00 96 1016.3
20260906083232 11 360 0.0 0.0 0.00 0.00 0.00 97 1016.1
20260906082727 11 360 0.0 0.0 0.00 0.00 0.00 97 1016.2
20260906082222 11 360 0.0 0.0 0.00 0.00 0.00 98 1016.2
20260906081719 11 360 0.0 0.0 0.00 0.00 0.00 98 1016.2
20260906081213 11 360 0.0 0.0 0.00 0.00 0.00 97 1016.2
20260906080710 11 360 0.0 0.0 0.00 0.00 0.00 98 1016.2
20260906080206 11 360 0.0 0.0 0.00 0.00 0.00 97 1016.2
20260906075706 11 360 0.0 0.0 0.00 0.00 0.00 96 1016.3
20260906075200 11 360 0.0 0.0 0.00 0.00 0.00 94 1016.2
20260906074655 11 360 0.0 0.0 0.00 0.00 0.00 92 1016.2
20260906074154 11 360 0.0 0.0 0.00 0.00 0.00 93 1016.3
20260906073650 11 360 0.0 0.0 0.00 0.00 0.00 93 1016.2
20260906073145 12 360 0.0 0.0 0.00 0.00 0.00 93 1016.2
20260906072640 12 360 0.0 0.0 0.00 0.00 0.00 93 1016.0
20260906072136 12 360 0.0 0.0 0.00 0.00 0.00 93 1016.1
20260906071632 12 360 0.0 0.0 0.00 0.00 0.00 93 1016.2
20260906071132 12 360 0.0 0.0 0.00 0.00 0.00 93 1016.2
20260906070629 12 360 0.0 0.0 0.00 0.00 0.00 93 1016.2
20260906070124 12 360 0.0 0.0 0.00 0.00 0.00 92 1016.2
20260906065624 12 360 0.0 0.0 0.00 0.00 0.00 93 1016.2
20260906065119 12 360 0.0 0.0 0.00 0.00 0.00 92 1016.2
20260906064614 12 360 0.0 0.0 0.00 0.00 0.00 93 1016.2
20260906064109 12 360 0.0 0.0 0.00 0.00 0.00 92 1016.2
20260906063605 12 360 0.0 0.0 0.00 0.00 0.00 93 1016.1
20260906063101 12 360 0.0 0.0 0.00 0.00 0.00 93 1016.1
20260906062556 12 360 0.0 0.0 0.00 0.00 0.00 91 1016.1
20260906062055 12 360 0.0 0.0 0.00 0.00 0.00 91 1016.1
20260906061552 12 360 0.0 0.0 0.00 0.00 0.00 91 1016.1
20260906061050 12 360 0.0 0.0 0.00 0.00 0.00 90 1015.9
20260906060547 12 360 0.0 0.0 0.00 0.00 0.00 91 1015.9
20260906060044 12 315 0.0 0.0 0.00 0.00 0.00 91 1016.0
20260906055540 12 315 0.0 0.0 0.00 0.00 0.00 91 1016.0
20260906055035 12 315 0.0 0.0 0.00 0.00 0.00 91 1015.9
20260906054535 12 22 0.0 0.0 0.00 0.00 0.00 91 1015.9
20260906054030 13 22 0.0 0.0 0.00 0.00 0.00 91 1015.9
20260906053527 13 22 0.0 0.0 0.00 0.00 0.00 90 1016.0
20260906053022 13 22 0.0 0.0 0.00 0.00 0.00 90 1016.0
20260906052518 13 22 0.0 0.0 0.00 0.00 0.00 89 1016.0
20260906052015 13 22 0.0 0.0 0.00 0.00 0.00 89 1015.9
20260906051510 13 22 0.0 0.0 0.00 0.00 0.00 89 1016.0
20260906051005 13 22 0.0 0.0 0.00 0.00 0.00 89 1016.1
20260906050500 13 22 0.0 0.0 0.00 0.00 0.00 89 1016.0
20260906045959 13 22 0.0 0.0 0.00 0.00 0.00 88 1016.0
20260906045458 13 22 0.0 0.0 0.00 0.00 0.00 88 1016.0
20260906044954 13 22 0.0 0.0 0.00 0.00 0.00 88 1016.1
20260906044449 13 22 0.0 0.0 0.00 0.00 0.00 89 1016.1
20260906043945 13 22 0.0 0.0 0.00 0.00 0.00 89 1016.2
20260906043441 13 22 0.0 0.0 0.00 0.00 0.00 87 1016.0
20260906042936 13 22 0.0 0.0 0.00 0.00 0.00 86 1016.0
20260906042435 13 22 0.0 0.0 0.00 0.00 0.00 85 1016.0
20260906041930 13 22 0.0 0.0 0.00 0.00 0.00 84 1016.1
20260906041426 13 22 0.0 0.0 0.00 0.00 0.00 85 1016.1
20260906040920 13 360 0.0 0.0 0.00 0.00 0.00 84 1016.1
20260906040415 14 360 0.0 0.0 0.00 0.00 0.00 84 1016.1
20260906035911 14 360 0.0 0.0 0.00 0.00 0.00 82 1016.0
20260906035406 14 360 0.0 0.0 0.00 0.00 0.00 80 1016.1
20260906034901 15 360 0.0 0.0 0.00 0.00 0.00 80 1016.0
20260906034355 15 360 0.0 0.0 0.00 0.00 0.00 78 1016.0
20260906033851 15 270 0.0 0.0 0.00 0.00 0.00 79 1016.0
20260906033351 15 270 0.0 0.0 0.00 0.00 0.00 78 1015.9
20260906032847 16 270 0.0 0.0 0.00 0.00 0.00 75 1015.9
20260906032343 16 319 0.0 0.0 0.00 0.00 0.00 74 1016.0
20260906031839 16 315 0.0 0.0 0.00 0.00 0.00 72 1016.1
20260906031334 17 315 0.0 0.0 0.00 0.00 0.00 71 1016.1
20260906030833 17 292 0.0 0.0 0.00 0.00 0.00 69 1016.0
20260906030329 17 247 0.0 0.0 0.00 0.00 0.00 67 1016.1
20260906025829 17 297 1.6 3.2 0.00 0.00 0.00 66 1016.1
20260906025322 17 135 0.0 0.0 0.00 0.00 0.00 67 1016.0
20260906024821 18 202 0.0 1.6 0.00 0.00 0.00 66 1016.0
20260906024321 18 283 0.0 0.0 0.00 0.00 0.00 66 1016.1
20260906023817 18 65 0.0 1.6 0.00 0.00 0.00 66 1016.0
20260906023312 18 225 0.0 0.0 0.00 0.00 0.00 65 1016.0
20260906022808 18 315 0.0 3.2 0.00 0.00 0.00 65 1016.1
20260906022306 18 67 0.0 0.0 0.00 0.00 0.00 64 1016.1
20260906021758 18 247 0.0 0.0 0.00 0.00 0.00 64 1016.1
20260906021257 18 120 0.0 3.2 0.00 0.00 0.00 63 1016.2
20260906020752 18 95 0.0 3.2 0.00 0.00 0.00 62 1016.2
20260906020252 19 146 0.0 1.6 0.00 0.00 0.00 63 1016.2
20260906015752 19 10 0.0 3.2 0.00 0.00 0.00 62 1015.9
20260906015250 20 157 3.2 9.7 0.00 0.00 0.00 61 1016.2
20260906014746 20 303 1.6 4.8 0.00 0.00 0.00 61 1016.1
20260906014241 20 232 1.6 4.8 0.00 0.00 0.00 59 1015.9
20260906013737 20 210 0.0 4.8 0.00 0.00 0.00 58 1016.0
20260906013237 20 171 1.6 4.8 0.00 0.00 0.00 58 1016.1
20260906012732 21 154 0.0 4.8 0.00 0.00 0.00 57 1016.2
20260906012227 21 279 0.0 1.6 0.00 0.00 0.00 56 1016.1
20260906011723 21 81 0.0 1.6 0.00 0.00 0.00 56 1016.2
20260906011217 21 305 1.6 3.2 0.00 0.00 0.00 53 1016.2
20260906010713 21 275 0.0 4.8 0.00 0.00 0.00 53 1016.1
20260906010209 21 274 1.6 3.2 0.00 0.00 0.00 52 1016.1
20260906005709 21 180 1.6 6.4 0.00 0.00 0.00 52 1016.0
20260906005208 21 325 0.0 3.2 0.00 0.00 0.00 51 1016.1
20260906004707 21 326 1.6 3.2 0.00 0.00 0.00 49 1016.0
20260906004202 22 114 0.0 1.6 0.00 0.00 0.00 49 1016.1
20260906003657 22 337 0.0 1.6 0.00 0.00 0.00 50 1016.2
20260906003153 21 355 0.0 3.2 0.00 0.00 0.00 50 1016.1
20260906002653 21 157 0.0 0.0 0.00 0.00 0.00 50 1016.1
20260906002148 21 22 0.0 0.0 0.00 0.00 0.00 50 1016.2
20260906001643 21 67 0.0 0.0 0.00 0.00 0.00 49 1016.1
20260906001143 21 92 0.0 4.8 0.00 0.00 0.00 48 1016.2
20260906000639 21 329 0.0 0.0 0.00 0.00 0.00 48 1016.3
20260906000134 21 325 0.0 1.6 0.00 0.00 0.00 48 1016.2
20260905235633 21 127 0.0 1.6 0.00 0.00 0.00 47 1016.4
20260905235129 21 22 0.0 0.0 0.00 0.00 0.00 45 1016.2
20260905234624 21 131 0.0 0.0 0.00 0.00 0.00 45 1016.4
20260905234120 21 243 1.6 4.8 0.00 0.00 0.00 45 1016.5
20260905233619 21 136 0.0 4.8 0.00 0.00 0.00 45 1016.5
20260905233114 21 199 1.6 4.8 0.00 0.00 0.00 45 1016.3
20260905232609 21 135 0.0 3.2 0.00 0.00 0.00 47 1016.4
20260905232105 21 48 0.0 0.0 0.00 0.00 0.00 47 1016.5